TimeEDT,TemperatureF,Dew PointF,Humidity,Sea Level PressureIn,VisibilityMPH,Wind Direction,Wind SpeedMPH,Gust SpeedMPH,PrecipitationIn,Events,Conditions,WindDirDegrees,DateUTC
12:56 AM,75.0,73.0,94,29.75,8.0,SW,6.9,-,N/A,,Partly Cloudy,220,2013-09-22 04:56:00
1:42 AM,75.0,73.0,94,29.75,8.0,SW,4.6,-,N/A,,Overcast,220,2013-09-22 05:42:00
1:56 AM,75.0,73.0,94,29.75,8.0,SW,4.6,-,N/A,,Overcast,220,2013-09-22 05:56:00
2:56 AM,75.0,72.0,90,29.73,10.0,West,8.1,-,N/A,,Overcast,260,2013-09-22 06:56:00
3:32 AM,73.9,72.0,93,29.72,2.5,West,8.1,-,N/A,Rain,Light Rain,280,2013-09-22 07:32:00
3:35 AM,73.9,72.0,93,29.72,3.0,West,5.8,-,N/A,Rain,Light Rain,280,2013-09-22 07:35:00
3:56 AM,73.9,72.0,93,29.72,10.0,West,6.9,-,N/A,,Overcast,280,2013-09-22 07:56:00
4:47 AM,73.9,72.0,93,29.72,10.0,WNW,4.6,-,N/A,,Mostly Cloudy,290,2013-09-22 08:47:00
4:56 AM,73.9,72.0,93,29.73,10.0,West,4.6,-,N/A,,Mostly Cloudy,280,2013-09-22 08:56:00
5:47 AM,73.9,72.0,93,29.73,10.0,West,4.6,-,N/A,,Overcast,260,2013-09-22 09:47:00
5:56 AM,73.9,72.0,93,29.73,10.0,WSW,6.9,-,N/A,,Overcast,250,2013-09-22 09:56:00
6:09 AM,73.9,72.0,93,29.73,9.0,WSW,6.9,-,N/A,,Overcast,250,2013-09-22 10:09:00
6:56 AM,73.9,72.0,93,29.74,10.0,West,8.1,-,N/A,,Overcast,280,2013-09-22 10:56:00
7:28 AM,73.9,72.0,93,29.74,8.0,NW,4.6,-,N/A,,Overcast,310,2013-09-22 11:28:00
7:44 AM,72.0,70.0,93,29.75,3.0,NNW,9.2,-,N/A,Rain,Rain,340,2013-09-22 11:44:00
7:50 AM,71.6,69.8,94,29.75,1.8,NNW,8.1,-,N/A,Rain,Heavy Rain,340,2013-09-22 11:50:00
7:56 AM,71.1,69.1,93,29.76,1.8,North,5.8,-,N/A,Rain,Rain,350,2013-09-22 11:56:00
8:02 AM,71.1,69.1,93,29.76,3.0,NW,6.9,-,N/A,Rain,Rain,320,2013-09-22 12:02:00
8:44 AM,71.1,69.1,93,29.77,9.0,NNW,6.9,-,N/A,,Overcast,330,2013-09-22 12:44:00
8:56 AM,72.0,69.1,91,29.78,10.0,North,8.1,-,N/A,,Overcast,350,2013-09-22 12:56:00
9:03 AM,71.1,69.1,93,29.77,10.0,North,6.9,-,N/A,,Overcast,360,2013-09-22 13:03:00
9:48 AM,71.1,68.0,90,29.78,10.0,NNE,9.2,-,N/A,,Overcast,20,2013-09-22 13:48:00
9:56 AM,71.1,68.0,90,29.78,10.0,NNE,8.1,-,N/A,,Overcast,30,2013-09-22 13:56:00
10:56 AM,72.0,66.9,84,29.80,10.0,North,9.2,-,N/A,,Overcast,350,2013-09-22 14:56:00
11:40 AM,73.0,66.9,81,29.79,10.0,North,5.8,-,N/A,,Overcast,360,2013-09-22 15:40:00
11:56 AM,73.0,66.0,79,29.80,10.0,North,5.8,-,N/A,,Overcast,360,2013-09-22 15:56:00
12:56 PM,73.9,66.9,79,29.79,10.0,NNE,4.6,-,N/A,,Overcast,20,2013-09-22 16:56:00
1:40 PM,75.0,66.0,73,29.79,10.0,NNW,8.1,-,N/A,,Overcast,340,2013-09-22 17:40:00
1:56 PM,75.9,66.0,71,29.78,10.0,NE,5.8,-,N/A,,Overcast,40,2013-09-22 17:56:00
2:56 PM,78.1,66.0,66,29.78,10.0,Variable,5.8,-,N/A,,Overcast,0,2013-09-22 18:56:00
3:56 PM,78.1,66.0,66,29.77,10.0,North,5.8,-,N/A,,Overcast,10,2013-09-22 19:56:00
4:56 PM,78.1,66.0,66,29.77,10.0,Calm,Calm,-,N/A,,Overcast,0,2013-09-22 20:56:00
5:56 PM,78.1,66.0,66,29.78,10.0,NNW,3.5,-,N/A,,Clear,330,2013-09-22 21:56:00
6:56 PM,75.9,68.0,76,29.79,10.0,Calm,Calm,-,N/A,,Partly Cloudy,0,2013-09-22 22:56:00
7:56 PM,73.0,68.0,84,29.81,10.0,Calm,Calm,-,N/A,,Clear,0,2013-09-22 23:56:00
8:56 PM,73.9,66.9,79,29.83,10.0,East,3.5,-,N/A,,Clear,90,2013-09-23 00:56:00
9:56 PM,73.0,68.0,84,29.85,10.0,ESE,3.5,-,N/A,,Clear,110,2013-09-23 01:56:00
10:56 PM,71.1,66.9,87,29.87,10.0,Calm,Calm,-,N/A,,Clear,0,2013-09-23 02:56:00
11:56 PM,71.1,66.9,87,29.87,10.0,Calm,Calm,-,N/A,,Clear,0,2013-09-23 03:56:00